Weather History for KMTO - October, 2013

Change the Weather History Date:

Tuesday, October 1, 2013

  Actual Average Record
Temperature  
Mean Temperature 71 °F 60 °F  
Max Temperature 77 °F 72 °F - ()
Min Temperature 64 °F 49 °F - ()
Degree Days  
Heating Degree Days 0 6  
Month to date heating degree days 0 6  
Since 1 July heating degree days 40 77  
Cooling Degree Days 6 2  
Month to date cooling degree days 6 2  
Year to date cooling degree days 982 1040  
Growing Degree Days 18 (Base 50)    
Moisture  
Dew Point 64 °F    
Average Humidity 85    
Maximum Humidity 100    
Minimum Humidity 69    
Precipitation  
Precipitation 0.00 in 0.08 in - ()
Month to date precipitation 0.00 0.08  
Year to date precipitation 38.73 29.05  
Sea Level Pressure  
Sea Level Pressure 30.00 in    
Wind  
Wind Speed 6 mph (SSW)    
Max Wind Speed 13 mph    
Max Gust Speed 17 mph    
Visibility 9 miles    
Events      
T = Trace of Precipitation, MM = Missing Value Source: NWS Daily Summary

Daily Weather History Graph

Daily Weather History Graph

Search for Another Location

Airport or City:

Trip Planner

Search our weather history database for the weather conditions in past years. The results will help you decide how hot, cold, wet, or windy it might be!

Date:

Astronomy

Oct. 01, 2013 Rise Set
Actual Time 6:49 AM CDT 6:35 PM CDT
Civil Twilight 6:22 AM CDT 7:01 PM CDT
Nautical Twilight 5:51 AM CDT 7:33 PM CDT
Astronomical Twilight 5:20 AM CDT 8:04 PM CDT
Moon 3:24 AM CDT (10/1) 4:38 PM CDT (10/1)
Length of Visible Light 12h 39m
Length of Day
11h 45m
Waning Crescent, 12% of the Moon is Illuminated
Oct 1
Waning Crescent
Oct 4
New
Oct 11
First Quarter
Oct 18
Full
Oct 26
Last Quarter

Hourly Weather History & Observations

Time (CDT) Temp. Dew Point Humidity Pressure Visibility Wind Dir Wind Speed Gust Speed Precip Events Conditions
12:32 AM 62.6 °F 62.6 °F 100% 29.97 in 6.0 mi South 8.1 mph - N/A   Mostly Cloudy
12:53 AM 64.0 °F 62.1 °F 93% 29.96 in 6.0 mi SSW 9.2 mph - N/A   Overcast
1:15 AM 64.4 °F 62.6 °F 94% 29.98 in 5.0 mi SSW 8.1 mph - N/A   Overcast
1:53 AM 64.0 °F 62.1 °F 93% 29.97 in 6.0 mi SSW 8.1 mph - N/A   Overcast
2:10 AM 64.4 °F 62.6 °F 94% 29.98 in 6.0 mi SSW 8.1 mph - N/A   Overcast
2:53 AM 64.9 °F 62.1 °F 90% 29.97 in 8.0 mi SSW 8.1 mph - N/A   Overcast
3:53 AM 64.0 °F 62.1 °F 93% 29.97 in 8.0 mi SSW 5.8 mph - N/A   Overcast
4:53 AM 64.9 °F 62.1 °F 90% 29.98 in 10.0 mi SW 6.9 mph - N/A   Overcast
5:53 AM 64.9 °F 62.1 °F 90% 30.00 in 10.0 mi SW 4.6 mph - N/A   Overcast
6:53 AM 64.9 °F 62.1 °F 90% 30.02 in 10.0 mi South 5.8 mph - N/A   Overcast
7:53 AM 64.9 °F 62.1 °F 90% 30.03 in 10.0 mi South 5.8 mph - N/A   Overcast
8:53 AM 66.0 °F 63.0 °F 90% 30.04 in 10.0 mi South 6.9 mph - N/A   Overcast
9:53 AM 69.1 °F 63.0 °F 81% 30.04 in 10.0 mi SSW 8.1 mph - N/A   Overcast
10:33 AM 69.8 °F 62.6 °F 78% 30.05 in 10.0 mi SSW 8.1 mph - N/A   Mostly Cloudy
10:53 AM 70.0 °F 63.0 °F 78% 30.04 in 10.0 mi South 8.1 mph - N/A   Overcast
11:53 AM 72.0 °F 64.0 °F 76% 30.02 in 10.0 mi SSW 8.1 mph - N/A   Overcast
12:53 PM 73.9 °F 64.9 °F 73% 30.02 in 10.0 mi SSW 6.9 mph - N/A   Overcast
1:53 PM 75.9 °F 64.9 °F 69% 30.00 in 10.0 mi WSW 9.2 mph - N/A   Overcast
2:53 PM 75.9 °F 66.0 °F 71% 29.99 in 10.0 mi South 8.1 mph - N/A   Mostly Cloudy
3:08 PM 75.2 °F 66.2 °F 73% 30.01 in 10.0 mi SSW 9.2 mph - N/A   Scattered Clouds
3:16 PM 75.2 °F 66.2 °F 73% 30.00 in 10.0 mi South 9.2 mph - N/A   Mostly Cloudy
3:53 PM 75.0 °F 66.0 °F 73% 29.99 in 10.0 mi South 8.1 mph - N/A   Overcast
4:53 PM 73.9 °F 66.0 °F 76% 29.99 in 10.0 mi SSW 6.9 mph - N/A   Overcast
5:53 PM 73.9 °F 66.0 °F 76% 29.99 in 10.0 mi SW 4.6 mph - N/A   Overcast
6:25 PM 73.4 °F 66.2 °F 78% 30.00 in 10.0 mi SSW 5.8 mph - N/A   Scattered Clouds
6:53 PM 71.1 °F 66.0 °F 84% 29.99 in 10.0 mi Calm Calm - N/A   Clear
7:53 PM 69.1 °F 66.0 °F 90% 29.99 in 9.0 mi South 3.5 mph - N/A   Clear
8:53 PM 66.9 °F 66.0 °F 97% 30.01 in 7.0 mi Calm Calm - N/A   Clear
9:53 PM 66.9 °F 64.9 °F 93% 30.01 in 6.0 mi Calm Calm - N/A   Clear
10:53 PM 68.0 °F 66.0 °F 93% 30.01 in 7.0 mi SSW 5.8 mph - N/A   Clear
11:53 PM 68.0 °F 66.9 °F 96% 30.01 in 6.0 mi SSW 6.9 mph - N/A   Clear